Dickinson, ND

11:24 PM MDT on July 24, 2017 (GMT -0600)
Dickinson Municipal

Weather History for KDIK - June, 2014

Change the Weather History Date:

Wednesday, June 11, 2014

  Actual Average Record
Temperature  
Mean Temperature 50 °F 61 °F  
Max Temperature 58 °F 74 °F 98 °F (1921)
Min Temperature 41 °F 48 °F 34 °F (1969)
Degree Days  
Heating Degree Days 15 5  
Month to date heating degree days 94 72  
Since 1 June heating degree days 94 72  
Since 1 July heating degree days 9094 8512  
Cooling Degree Days 0 1  
Month to date cooling degree days 0 11  
Year to date cooling degree days 30 21  
Since 1 June cooling degree days 0 11  
Growing Degree Days 2 (Base 50)    
Moisture  
Dew Point 47 °F    
Average Humidity 80    
Maximum Humidity 93    
Minimum Humidity 66    
Precipitation  
Precipitation 0.22 in 0.11 in 2.29 in (1932)
Month to date precipitation 0.42 1.14  
Year to date precipitation 8.46 6.25  
Sea Level Pressure  
Sea Level Pressure 29.93 in    
Wind  
Wind Speed 9 mph (NNW)    
Max Wind Speed 21 mph    
Max Gust Speed 27 mph    
Visibility 9 miles    
Events Rain    
T = Trace of Precipitation, MM = Missing Value Source: NWS Daily Summary

Daily Weather History Graph

Daily Weather History Graph

Search for Another Location

Airport or City:

Trip Planner

Search our weather history database for the weather conditions in past years. The results will help you decide how hot, cold, wet, or windy it might be!

Date:

Astronomy

Jun. 11, 2014 Rise Set
Actual Time 4:56 AM MDT 8:45 PM MDT
Civil Twilight 4:17 AM MDT 9:24 PM MDT
Nautical Twilight 3:24 AM MDT 10:18 PM MDT
Astronomical Twilight 2:07 AM MDT 11:35 PM MDT
Moon 7:11 PM MDT (6/11) 3:56 AM MDT (6/11)
Length of Visible Light 17h 07m
Length of Day
15h 48m
Waxing Gibbous, 97% of the Moon is Illuminated
Jun 11
Waxing Gibbous
Jun 12
Full
Jun 19
Last Quarter
Jun 27
New
Jul 5
First Quarter

Hourly Weather History & Observations

Time (MDT) Temp. Windchill Dew Point Humidity Pressure Visibility Wind Dir Wind Speed Gust Speed Precip Events Conditions
12:56 AM 51.1 °F - 48.0 °F 89% 29.79 in 10.0 mi NNE 4.6 mph - N/A   Clear
1:56 AM 48.0 °F - 46.0 °F 93% 29.81 in 10.0 mi Calm Calm - N/A   Scattered Clouds
3:56 AM 54.0 °F - 50.0 °F 86% 29.79 in 10.0 mi WSW 3.5 mph - N/A   Overcast
4:56 AM 54.0 °F - 51.1 °F 90% 29.80 in 10.0 mi WNW 5.8 mph - N/A   Overcast
6:56 AM 55.9 °F - 52.0 °F 87% 29.80 in 7.0 mi West 9.2 mph - N/A   Overcast
7:56 AM 55.9 °F - 51.1 °F 84% 29.82 in 9.0 mi North 12.7 mph - N/A   Overcast
8:56 AM 55.9 °F - 46.0 °F 69% 29.84 in 10.0 mi North 15.0 mph - N/A   Mostly Cloudy
9:16 AM 55.9 °F - 46.0 °F 69% 29.85 in 10.0 mi NNE 13.8 mph 18.4 mph N/A   Mostly Cloudy
9:56 AM 55.9 °F - 45.0 °F 67% 29.86 in 10.0 mi North 12.7 mph - N/A   Overcast
10:35 AM 54.0 °F - 46.0 °F 75% 29.89 in 10.0 mi North 15.0 mph - 0.00 in Rain Light Rain
10:56 AM 55.0 °F - 46.9 °F 74% 29.88 in 10.0 mi North 13.8 mph - 0.00 in   Overcast
11:56 AM 54.0 °F - 46.9 °F 77% 29.91 in 10.0 mi North 18.4 mph 26.5 mph N/A   Overcast
12:27 PM 52.0 °F - 46.9 °F 83% 29.92 in 10.0 mi North 12.7 mph - 0.00 in Rain Light Rain
12:51 PM 51.8 °F - 48.2 °F 88% 29.93 in 2.5 mi NNW 15.0 mph 20.7 mph 0.04 in Rain Heavy Rain
12:56 PM 51.1 °F - 48.0 °F 89% 29.95 in 2.5 mi North 16.1 mph - 0.06 in Rain Rain
1:00 PM 51.1 °F - 48.0 °F 89% 29.94 in 3.0 mi North 13.8 mph - 0.01 in Rain Heavy Rain
1:05 PM 51.1 °F - 48.0 °F 89% 29.94 in 2.0 mi North 13.8 mph 21.9 mph 0.05 in Rain Heavy Rain
1:21 PM 51.1 °F - 48.0 °F 89% 29.95 in 5.0 mi North 13.8 mph - 0.08 in Rain Light Rain
1:26 PM 51.1 °F - 48.0 °F 89% 29.95 in 9.0 mi North 11.5 mph - 0.08 in Rain Light Rain
1:43 PM 52.0 °F - 48.0 °F 86% 29.95 in 10.0 mi North 16.1 mph - 0.09 in Rain Light Rain
1:51 PM 51.8 °F - 48.2 °F 88% 29.96 in 9.0 mi North 13.8 mph - 0.09 in Rain Light Rain
3:56 PM 53.1 °F - 48.9 °F 86% 29.99 in 10.0 mi NNW 12.7 mph - 0.01 in Rain Light Rain
4:56 PM 55.0 °F - 48.0 °F 77% 29.99 in 10.0 mi North 11.5 mph - 0.01 in   Scattered Clouds
5:56 PM 57.0 °F - 46.9 °F 69% 29.99 in 10.0 mi NW 13.8 mph - N/A   Scattered Clouds
6:56 PM 55.0 °F - 45.0 °F 69% 30.01 in 10.0 mi NNW 9.2 mph - N/A   Overcast
7:56 PM 54.0 °F - 46.0 °F 75% 30.02 in 10.0 mi NNW 9.2 mph - N/A   Mostly Cloudy
8:56 PM 50.0 °F - 45.0 °F 83% 30.04 in 10.0 mi NW 5.8 mph - N/A   Scattered Clouds
9:56 PM 48.9 °F - 44.1 °F 83% 30.05 in 10.0 mi NNW 6.9 mph - N/A   Clear
10:56 PM 46.0 °F 42.5 °F 42.1 °F 86% 30.07 in 10.0 mi NNW 6.9 mph - N/A   Clear
11:56 PM 44.1 °F 41.5 °F 41.0 °F 89% 30.09 in 10.0 mi NW 4.6 mph - N/A   Clear